Weather History for O'Neill, NE

Change the Weather History Date:

Sunday, September 23, 2012

  Actual Average Record
Temperature  
Mean Temperature 54 °F -  
Max Temperature 72 °F 73 °F 87 °F (2007)
Min Temperature 36 °F 43 °F 30 °F (1983)
Degree Days  
Heating Degree Days 11    
Growing Degree Days 4 (Base 50)    
Moisture  
Dew Point 27 °F    
Average Humidity 40    
Maximum Humidity 69    
Minimum Humidity 17    
Precipitation  
Precipitation 0.00 in - - ()
Sea Level Pressure  
Sea Level Pressure 30.24 in    
Wind  
Wind Speed 5 mph (SSE)    
Max Wind Speed 15 mph    
Max Gust Speed 22 mph    
Visibility 10 miles    
Events      
Averages and records for this station are not official NWS values.
T = Trace of Precipitation, MM = Missing Value Source: NWS Daily Summary

Daily Weather History Graph

Daily Weather History Graph

Search for Another Location

Airport:

Trip Planner

Search our weather history database for the weather conditions in past years. The results will help you decide how hot, cold, wet, or windy it might be!

Date:

Astronomy

Sep. 23, 2012 Rise Set
Actual Time 7:23 AM CDT 7:29 PM CDT
Civil Twilight 6:55 AM CDT 7:57 PM CDT
Nautical Twilight 6:22 AM CDT 8:30 PM CDT
Astronomical Twilight 5:49 AM CDT 9:03 PM CDT
Moon 3:38 PM CDT (9/23) 12:30 AM CDT (9/23)
Length of Visible Light 13h 01m
Length of Day
12h 05m
First Quarter, 60% of the Moon is Illuminated
Sep 23
First Quarter
Sep 29
Full
Oct 8
Last Quarter
Oct 15
New
Oct 21
First Quarter

Hourly Weather History & Observations

Time (CDT) Temp. Windchill Dew Point Humidity Pressure Visibility Wind Dir Wind Speed Gust Speed Precip Events Conditions
12:15 AM 39.7 °F - 26.2 °F 59% 30.29 in 10.0 mi Calm Calm - N/A   Clear
12:35 AM 41.0 °F - 25.9 °F 55% 30.30 in 10.0 mi Calm Calm - N/A   Clear
12:55 AM 39.9 °F - 25.9 °F 57% 30.30 in 10.0 mi Calm Calm - N/A   Clear
1:15 AM 39.6 °F - 25.5 °F 57% 30.30 in 10.0 mi Calm Calm - N/A   Clear
1:35 AM 38.1 °F - 28.6 °F 69% 30.30 in 10.0 mi Calm Calm - N/A   Clear
1:55 AM 38.3 °F - 27.5 °F 65% 30.29 in 10.0 mi Calm Calm - N/A   Clear
2:15 AM 37.6 °F - 26.1 °F 63% 30.30 in 10.0 mi Calm Calm - N/A   Clear
2:35 AM 37.4 °F - 26.1 °F 64% 30.30 in 10.0 mi Calm Calm - N/A   Clear
2:55 AM 37.8 °F - 26.8 °F 65% 30.30 in 10.0 mi Calm Calm - N/A   Clear
3:15 AM 39.6 °F - 25.2 °F 56% 30.29 in 10.0 mi Calm Calm - N/A   Clear
3:35 AM 37.6 °F - 25.5 °F 62% 30.30 in 10.0 mi Calm Calm - N/A   Clear
3:55 AM 37.6 °F - 25.7 °F 62% 30.29 in 10.0 mi Calm Calm - N/A   Clear
4:15 AM 38.5 °F - 25.7 °F 60% 30.29 in 10.0 mi Calm Calm - N/A   Clear
4:35 AM 38.5 °F - 25.5 °F 60% 30.29 in 10.0 mi Calm Calm - N/A   Clear
4:55 AM 38.7 °F 36.3 °F 25.2 °F 58% 30.29 in 10.0 mi ESE 3.5 mph - N/A   Clear
5:15 AM 38.8 °F 36.5 °F 25.5 °F 59% 30.28 in 10.0 mi ESE 3.5 mph - N/A   Clear
5:35 AM 39.0 °F 36.8 °F 25.5 °F 58% 30.28 in 10.0 mi ESE 3.5 mph - N/A   Clear
5:55 AM 37.2 °F - 25.3 °F 62% 30.28 in 10.0 mi Calm Calm - N/A   Clear
6:15 AM 37.0 °F - 25.7 °F 64% 30.29 in 10.0 mi Calm Calm - N/A   Clear
6:35 AM 36.0 °F 33.3 °F 25.5 °F 66% 30.29 in 10.0 mi ESE 3.5 mph - N/A   Clear
6:55 AM 36.0 °F 32.1 °F 25.5 °F 66% 30.29 in 10.0 mi ESE 4.6 mph - N/A   Clear
7:15 AM 37.6 °F 33.1 °F 25.0 °F 60% 30.29 in 10.0 mi ESE 5.8 mph - N/A   Clear
7:35 AM 38.3 °F 33.9 °F 25.2 °F 59% 30.30 in 10.0 mi ESE 5.8 mph - N/A   Clear
7:55 AM 38.3 °F 35.9 °F 25.5 °F 60% 30.31 in 10.0 mi ESE 3.5 mph - N/A   Clear
8:15 AM 39.4 °F 36.1 °F 25.5 °F 58% 30.31 in 10.0 mi SE 4.6 mph - N/A   Clear
8:35 AM 41.7 °F 38.8 °F 25.7 °F 53% 30.31 in 10.0 mi SE 4.6 mph - N/A   Clear
8:55 AM 42.8 °F 38.6 °F 25.7 °F 51% 30.32 in 10.0 mi SE 6.9 mph - N/A   Clear
9:15 AM 45.0 °F 40.6 °F 25.7 °F 47% 30.32 in 10.0 mi SE 8.1 mph - N/A   Clear
9:35 AM 47.1 °F - 26.4 °F 45% 30.31 in 10.0 mi SE 9.2 mph - N/A   Clear
9:55 AM 50.9 °F - 25.2 °F 37% 30.31 in 10.0 mi SE 9.2 mph - N/A   Clear
10:15 AM 53.2 °F - 24.8 °F 33% 30.31 in 10.0 mi SE 9.2 mph - N/A   Clear
10:35 AM 55.6 °F - 24.4 °F 30% 30.30 in 10.0 mi SE 12.7 mph - N/A   Clear
10:55 AM 57.0 °F - 24.3 °F 28% 30.30 in 10.0 mi SE 10.4 mph - N/A   Clear
11:15 AM 59.2 °F - 24.3 °F 26% 30.30 in 10.0 mi SE 10.4 mph - N/A   Clear
11:35 AM 61.0 °F - 23.9 °F 24% 30.29 in 10.0 mi SE 12.7 mph 18.4 mph N/A   Clear
11:55 AM 63.1 °F - 23.2 °F 22% 30.28 in 10.0 mi SSE 11.5 mph 17.3 mph N/A   Clear
12:15 PM 64.0 °F - 21.9 °F 20% 30.28 in 10.0 mi SSE 12.7 mph 19.6 mph N/A   Clear
12:35 PM 65.1 °F - 22.3 °F 20% 30.27 in 10.0 mi South 11.5 mph 20.7 mph N/A   Clear
12:55 PM 66.6 °F - 21.7 °F 18% 30.26 in 10.0 mi SE 12.7 mph 17.3 mph N/A   Clear
1:15 PM 68.5 °F - 22.1 °F 17% 30.25 in 10.0 mi South 13.8 mph 19.6 mph N/A   Clear
1:35 PM 68.7 °F - 22.8 °F 18% 30.24 in 10.0 mi SSE 15.0 mph - N/A   Clear
1:55 PM 68.9 °F - 23.7 °F 18% 30.23 in 10.0 mi South 11.5 mph 20.7 mph N/A   Clear
2:15 PM 70.0 °F - 23.7 °F 18% 30.22 in 10.0 mi SSE 12.7 mph 19.6 mph N/A   Clear
2:35 PM 70.3 °F - 24.6 °F 18% 30.21 in 10.0 mi SSE 11.5 mph 21.9 mph N/A   Clear
2:55 PM 70.9 °F - 24.6 °F 18% 30.20 in 10.0 mi South 11.5 mph 16.1 mph N/A   Clear
3:15 PM 72.0 °F - 25.7 °F 18% 30.19 in 10.0 mi South 13.8 mph 19.6 mph N/A   Clear
3:35 PM 72.1 °F - 25.9 °F 18% 30.19 in 10.0 mi South 12.7 mph - N/A   Clear
3:55 PM 72.5 °F - 26.1 °F 18% 30.18 in 10.0 mi SSW 9.2 mph - N/A   Clear
4:15 PM 72.0 °F - 26.8 °F 19% 30.17 in 10.0 mi SSE 11.5 mph 19.6 mph N/A   Clear
4:35 PM 72.1 °F - 27.9 °F 19% 30.17 in 10.0 mi South 9.2 mph 16.1 mph N/A   Clear
4:55 PM 72.5 °F - 28.4 °F 19% 30.16 in 10.0 mi South 13.8 mph 19.6 mph N/A   Clear
5:15 PM 71.8 °F - 28.6 °F 20% 30.16 in 10.0 mi SSE 11.5 mph 16.1 mph N/A   Clear
5:35 PM 71.6 °F - 29.5 °F 21% 30.16 in 10.0 mi SSE 11.5 mph - N/A   Clear
5:55 PM 71.1 °F - 29.5 °F 21% 30.16 in 10.0 mi SSE 12.7 mph 17.3 mph N/A   Clear
6:15 PM 71.1 °F - 29.3 °F 21% 30.15 in 10.0 mi South 10.4 mph - N/A   Clear
6:35 PM 69.8 °F - 29.7 °F 22% 30.15 in 10.0 mi South 9.2 mph - N/A   Clear
6:55 PM 68.2 °F - 29.8 °F 24% 30.15 in 10.0 mi SSE 8.1 mph - N/A   Clear
7:15 PM 65.5 °F - 30.0 °F 26% 30.15 in 10.0 mi SSE 8.1 mph - N/A   Clear
7:35 PM 63.7 °F - 30.2 °F 28% 30.15 in 10.0 mi SSE 8.1 mph - N/A   Clear
7:55 PM 63.5 °F - 30.2 °F 29% 30.15 in 10.0 mi SSE 8.1 mph - N/A   Clear
8:15 PM 62.2 °F - 30.2 °F 30% 30.15 in 10.0 mi SSE 8.1 mph - N/A   Clear
8:35 PM 61.2 °F - 30.2 °F 31% 30.15 in 10.0 mi SSE 8.1 mph - N/A   Clear
8:55 PM 59.5 °F - 30.6 °F 33% 30.15 in 10.0 mi SSE 8.1 mph - N/A   Clear
9:15 PM 59.0 °F - 30.6 °F 34% 30.15 in 10.0 mi SSE 9.2 mph - N/A   Clear
9:35 PM 58.5 °F - 30.6 °F 35% 30.15 in 10.0 mi SSE 9.2 mph - N/A   Clear
9:55 PM 58.1 °F - 30.7 °F 35% 30.16 in 10.0 mi SSE 8.1 mph - N/A   Clear
10:15 PM 56.5 °F - 30.9 °F 38% 30.15 in 10.0 mi SSE 9.2 mph - N/A   Clear
10:35 PM 56.3 °F - 31.1 °F 38% 30.15 in 10.0 mi SSE 8.1 mph - N/A   Clear
10:55 PM 55.6 °F - 31.6 °F 40% 30.14 in 10.0 mi SSE 9.2 mph - N/A   Clear
11:15 PM 55.4 °F - 31.8 °F 41% 30.14 in 10.0 mi SSE 9.2 mph - N/A   Clear
11:35 PM 54.5 °F - 32.0 °F 42% 30.14 in 10.0 mi South 6.9 mph - N/A   Clear
11:55 PM 54.9 °F - 32.4 °F 42% 30.14 in 10.0 mi South 8.1 mph - N/A   Clear